Logan Peak - 24 Hour Table
Date & TimeSolar
Radiation
(W/m²)
Wind
Speed
(mph)
Wind
Direction
(degrees)
Air
Temperature
(°F)
Relative
Humidity
(%)
Barometeric
Pressure
(inHg)
2018/12/11 19:00 0 26.4 209 13.3 91 29.76
2018/12/11 18:00 0 25.4 208 13.4 57 29.77
2018/12/11 17:00 41 24.2 202 15.7 55 29.77
2018/12/11 16:00 192 19.7 223 17.1 33 29.78
2018/12/11 15:00 320 18.0 244 17.0 29 29.78
2018/12/11 14:00 410 17.2 251 17.0 47 29.79
2018/12/11 13:00 451 16.3 252 16.5 44 29.80
2018/12/11 12:00 436 17.2 258 15.7 55 29.81
2018/12/11 11:00 367 19.3 270 15.0 57 29.82
2018/12/11 10:00 252 20.0 267 15.1 63 29.82
2018/12/11 09:00 103 19.1 275 14.2 59 29.81
2018/12/11 08:00 4 17.5 292 13.0 68 29.81
2018/12/11 07:00 0 19.7 294 12.7 85 29.81
2018/12/11 06:00 0 20.8 294 12.3 93 29.81
2018/12/11 05:00 0 21.5 286 12.9 95 29.80
2018/12/11 04:00 0 25.4 300 14.2 97 29.80
2018/12/11 03:00 0 24.9 299 15.3 97 29.79
2018/12/11 02:00 0 22.1 301 14.9 98 29.80
2018/12/11 01:00 0 18.5 290 15.8 100 29.80
2018/12/11 00:00 0 18.4 268 16.3 88 29.80
2018/12/10 23:00 0 20.7 244 17.8 82 29.80
2018/12/10 22:00 0 27.5 216 18.5 79 29.80
2018/12/10 21:00 0 31.1 204 20.2 74 29.79
2018/12/10 20:00 0 27.2 212 20.4 68 29.80